Location: Stoke Bliss
(52.2667°N, 2.5167°W)
Time: 21:14:48
(UTC+00:00)

BREEZE-M DEB (TANK) - Visible Passes

Search period start: 24 June 2021 00:00
Search period end: 04 July 2021 00:00
Orbit: 315 x 15387 km, 49.5° (Epoch: 23 June)

Date Brightness Start Highest point End Pass type
(mag) Time Alt. Az. Time Alt. Az. Time Alt. Az.
24 Jun 7.0 00:53:50 15° S 01:38:59 41° SE 01:51:27 10° ENE visible
25 Jun 7.3 00:20:29 15° S 01:04:10 37° SE 01:17:52 10° ENE visible
25 Jun 7.4 23:46:40 15° S 00:29:15 33° SE 00:44:07 10° E visible
26 Jun 7.5 23:12:11 14° SSE 23:54:16 29° SE 00:10:07 10° E visible
27 Jun 7.6 22:36:30 12° SSE 23:19:15 25° SE 23:35:48 10° E visible
28 Jun 7.7 22:02:15 10° SSE 22:44:17 21° ESE 23:00:59 10° E visible
29 Jun 5.7 03:05:12 10° SW 03:48:07 68° SSE 03:55:45 10° E visible
29 Jun 7.8 21:36:00 10° SE 22:09:27 17° ESE 22:25:19 10° E visible
30 Jun 6.0 02:24:50 10° SW 03:13:54 64° SSE 03:22:27 10° E visible
30 Jun 7.9 21:13:06 10° SE 21:34:48 13° ESE 21:47:49 10° E visible
01 Jul 6.2 01:44:35 10° SW 02:39:31 60° SSE 02:49:06 10° ENE visible
02 Jul 6.5 01:04:52 10° SSW 02:04:58 56° SSE 02:15:40 10° ENE visible
03 Jul 6.7 00:25:58 10° SSW 01:30:13 52° SSE 01:42:11 10° ENE visible
